H1 CPF 2 NER 2022 5 31 9 151 01 glonass127 H2 1106403 9127 37869 2022 5 31 0 0 0 2022 6 3 23 45 0 900 1 1 0 0 0 1 H9 10 0 59730 0.00000 0 -13019188.489 -418069.894 -21874257.060 10 0 59730 900.00000 0 -14662036.361 -2484106.577 -20669811.573 10 0 59730 1800.00000 0 -16336102.843 -4294275.865 -19061823.495 10 0 59730 2700.00000 0 -17980600.909 -5820920.219 -17081901.563 10 0 59730 3600.00000 0 -19532447.773 -7048890.100 -14768898.670 10 0 59730 4500.00000 0 -20928894.460 -7975898.252 -12168127.596 10 0 59730 5400.00000 0 -22110154.924 -8612328.252 -9330451.726 10 0 59730 6300.00000 0 -23021923.160 -8980509.054 -6311270.435 10 0 59730 7200.00000 0 -23617672.107 -9113489.913 -3169420.927 10 0 59730 8100.00000 0 -23860638.197 -9053371.175 33980.453 10 0 59730 9000.00000 0 -23725409.259 -8849264.733 3236733.634 10 0 59730 9900.00000 0 -23199050.894 -8554972.884 6376762.822 10 0 59730 10800.00000 0 -22281726.219 -8226485.463 9393313.498 10 0 59730 11700.00000 0 -20986785.357 -7919401.686 12228115.616 10 0 59730 12600.00000 0 -19340323.135 -7686385.342 14826491.492 10 0 59730 13500.00000 0 -17380225.305 -7574759.601 17138388.606 10 0 59730 14400.00000 0 -15154744.176 -7624341.044 19119319.539 10 0 59730 15300.00000 0 -12720663.380 -7865601.978 20731193.240 10 0 59730 16200.00000 0 -10141127.457 -8318236.168 21943024.193 10 0 59730 17100.00000 0 -7483224.849 -8990186.355 22731508.272 10 0 59730 18000.00000 0 -4815422.337 -9877173.120 23081456.260 10 0 59730 18900.00000 0 -2204954.327 -10962744.430 22986078.314 10 0 59730 19800.00000 0 284728.083 -12218844.371 22447114.810 10 0 59730 20700.00000 0 2596345.676 -13606878.748 21474811.176 10 0 59730 21600.00000 0 4680921.262 -15079235.371 20087736.564 10 0 59730 22500.00000 0 6499565.335 -16581198.393 18312448.401 10 0 59730 23400.00000 0 8024844.516 -18053179.838 16183007.275 10 0 59730 24300.00000 0 9241676.530 -19433178.112 13740349.005 10 0 59730 25200.00000 0 10147714.179 -20659363.263 11031523.256 10 0 59730 26100.00000 0 10753201.267 -21672682.567 8108810.745 10 0 59730 27000.00000 0 11080305.014 -22419378.137 5028733.650 10 0 59730 27900.00000 0 11161951.246 -22853310.685 1850976.321 10 0 59730 28800.00000 0 11040209.555 -22937990.512 -1362764.053 10 0 59730 29700.00000 0 10764295.153 -22648228.093 -4549975.195 10 0 59730 30600.00000 0 10388270.948 -21971331.771 -7648552.545 10 0 59730 31500.00000 0 9968546.918 -20907798.754 -10598022.384 10 0 59730 32400.00000 0 9561283.375 -19471466.771 -13340740.066 10 0 59730 33300.00000 0 9219809.670 -17689116.758 -15823038.083 10 0 59730 34200.00000 0 8992169.860 -15599540.549 -17996299.277 10 0 59730 35100.00000 0 8918902.011 -13252110.819 -19817932.017 10 0 59730 36000.00000 0 9031148.033 -10704912.230 -21252226.095 10 0 59730 36900.00000 0 9349176.817 -8022512.030 -22271070.605 10 0 59730 37800.00000 0 9881385.596 -5273464.108 -22854518.264 10 0 59730 38700.00000 0 10623823.577 -2527652.159 -22991184.007 10 0 59730 39600.00000 0 11560259.117 146415.325 -22678469.436 10 0 59730 40500.00000 0 12662787.894 2684243.652 -21922608.682 10 0 59730 41400.00000 0 13892956.013 5027812.597 -20738535.157 10 0 59730 42300.00000 0 15203349.450 7127755.508 -19149572.705 10 0 59730 43200.00000 0 16539581.207 8945165.856 -17186958.443 10 0 59730 44100.00000 0 17842590.374 10452956.570 -14889208.227 10 0 59730 45000.00000 0 19051154.152 11636717.071 -12301339.010 10 0 59730 45900.00000 0 20104505.114 12495034.810 -9473965.259 10 0 59730 46800.00000 0 20944941.962 13039271.189 -6462289.071 10 0 59730 47700.00000 0 21520322.944 13292805.083 -3325005.633 10 0 59730 48600.00000 0 21786336.778 13289779.701 -123147.021 10 0 59730 49500.00000 0 21708456.093 13073409.293 3081111.908 10 0 59730 50400.00000 0 21263492.476 12693920.204 6225661.403 10 0 59730 51300.00000 0 20440689.559 12206215.502 9249654.849 10 0 59730 52200.00000 0 19242310.295 11667363.075 12094674.129 10 0 59730 53100.00000 0 17683695.924 11134013.484 14705840.700 10 0 59730 54000.00000 0 15792795.953 10659855.772 17032852.546 10 0 59730 54900.00000 0 13609190.020 10293216.934 19030929.088 10 0 59730 55800.00000 0 11182643.008 10074903.957 20661648.163 10 0 59730 56700.00000 0 8571253.161 10036376.833 21893661.502 10 0 59730 57600.00000 0 5839268.886 10198326.977 22703277.387 10 0 59730 58500.00000 0 3054662.758 10569718.792 23074901.335 10 0 59730 59400.00000 0 286560.519 11147333.402 23001328.018 10 0 59730 60300.00000 0 -2397371.704 11915833.337 22483879.699 10 0 59730 61200.00000 0 -4933476.980 12848346.132 21532388.743 10 0 59730 62100.00000 0 -7264491.546 13907544.013 20165023.889 10 0 59730 63000.00000 0 -9341667.038 15047176.842 18407962.274 10 0 59730 63900.00000 0 -11126544.765 16213996.979 16294911.502 10 0 59730 64800.00000 0 -12592309.432 17349998.449 13866488.509 10 0 59730 65700.00000 0 -13724666.125 18394879.365 11169464.440 10 0 59730 66600.00000 0 -14522203.221 19288626.506 8255887.466 10 0 59730 67500.00000 0 -14996224.804 19974114.944 5182097.986 10 0 59730 68400.00000 0 -15170057.795 20399613.774 2007653.233 10 0 59730 69300.00000 0 -15077861.040 20521091.773 -1205819.195 10 0 59730 70200.00000 0 -14762984.767 20304224.092 -4395817.337 10 0 59730 71100.00000 0 -14275948.363 19726012.729 -7500187.088 10 0 59730 72000.00000 0 -13672121.247 18775949.139 -10458345.972 10 0 59730 72900.00000 0 -13009205.101 17456666.383 -13212483.212 10 0 59730 73800.00000 0 -12344624.991 15784049.682 -15708710.859 10 0 59730 74700.00000 0 -11732941.501 13786797.538 -17898141.205 10 0 59730 75600.00000 0 -11223395.714 11505449.263 -19737867.250 10 0 59730 76500.00000 0 -10857693.504 8990917.930 -21191824.840 10 0 59730 77400.00000 0 -10668125.516 6302589.532 -22231517.644 10 0 59730 78300.00000 0 -10676104.680 3506067.926 -22836589.219 10 0 59730 79200.00000 0 -10891184.985 670660.719 -22995229.867 10 0 59730 80100.00000 0 -11310604.168 -2133287.481 -22704409.663 10 0 59730 81000.00000 0 -11919370.050 -4837101.494 -21969933.026 10 0 59730 81900.00000 0 -12690886.525 -7376407.263 -20806314.125 10 0 59730 82800.00000 0 -13588091.616 -9693577.700 -19236476.450 10 0 59730 83700.00000 0 -14565057.874 -11739890.104 -17291283.660 10 0 59730 84600.00000 0 -15568985.418 -13477305.311 -15008912.465 10 0 59730 85500.00000 0 -16542501.196 -14879795.332 -12434081.658 10 0 59731 0.00000 0 -17426165.125 -15934165.932 -9617154.590 10 0 59731 900.00000 0 -18161075.901 -16640343.145 -6613133.018 10 0 59731 1800.00000 0 -18691463.959 -17011113.744 -3480567.784 10 0 59731 2700.00000 0 -18967163.095 -17071336.358 -280404.121 10 0 59731 3600.00000 0 -18945855.352 -16856658.685 2925210.882 10 0 59731 4500.00000 0 -18594995.824 -16411798.884 6074136.038 10 0 59731 5400.00000 0 -17893337.628 -15788466.267 9105435.119 10 0 59731 6300.00000 0 -16831994.684 -15043010.833 11960544.337 10 0 59731 7200.00000 0 -15414999.629 -14233901.567 14584386.579 10 0 59731 8100.00000 0 -13659335.264 -13419139.578 16926412.431 10 0 59731 9000.00000 0 -11594439.586 -12653713.819 18941550.017 10 0 59731 9900.00000 0 -9261205.839 -11987204.498 20591047.615 10 0 59731 10800.00000 0 -6710519.162 -11461632.449 21843195.404 10 0 59731 11700.00000 0 -4001389.673 -11109642.169 22673914.888 10 0 59731 12600.00000 0 -1198757.730 -10953092.318 23067206.759 10 0 59731 13500.00000 0 1628940.260 -11002110.841 23015450.260 10 0 59731 14400.00000 0 4412347.776 -11254653.163 22519549.264 10 0 59731 15300.00000 0 7083802.516 -11696581.712 21588922.463 10 0 59731 16200.00000 0 9579884.205 -12302264.217 20241337.302 10 0 59731 17100.00000 0 11843793.314 -13035667.337 18502589.461 10 0 59731 18000.00000 0 13827464.238 -13851902.106 16406032.131 10 0 59731 18900.00000 0 15493326.723 -14699159.127 13991961.649 10 0 59731 19800.00000 0 16815642.828 -15520955.037 11306868.627 10 0 59731 20700.00000 0 17781363.255 -16258598.303 8402566.372 10 0 59731 21600.00000 0 18390466.216 -16853772.477 5335210.913 10 0 59731 22500.00000 0 18655762.908 -17251129.005 2164229.532 10 0 59731 23400.00000 0 18602175.749 -17400780.213 -1048822.756 10 0 59731 24300.00000 0 18265517.750 -17260586.057 -4241457.373 10 0 59731 25200.00000 0 17690822.756 -16798135.907 -7351473.717 10 0 59731 26100.00000 0 16930295.845 -15992338.679 -10318183.485 10 0 59731 27000.00000 0 16040970.084 -14834550.643 -13083612.523 10 0 59731 27900.00000 0 15082169.036 -13329189.548 -15593654.959 10 0 59731 28800.00000 0 14112883.539 -11493805.625 -17799154.790 10 0 59731 29700.00000 0 13189175.465 -9358603.342 -19656891.593 10 0 59731 30600.00000 0 12361720.488 -6965431.542 -21130448.879 10 0 59731 31500.00000 0 11673596.162 -4366282.914 -22190946.114 10 0 59731 32400.00000 0 11158411.031 -1621365.020 -22817618.522 10 0 59731 33300.00000 0 10838855.704 1203176.141 -22998232.176 10 0 59731 34200.00000 0 10725738.365 4037783.868 -22729325.608 10 0 59731 35100.00000 0 10817545.964 6812162.832 -22016273.098 10 0 59731 36000.00000 0 11100549.319 9457982.413 -20873168.762 10 0 59731 36900.00000 0 11549446.609 11911496.988 -19322534.559 10 0 59731 37800.00000 0 12128516.324 14115972.865 -17394859.166 10 0 59731 38700.00000 0 12793228.709 16023820.201 -15127978.281 10 0 59731 39600.00000 0 13492245.077 17598341.289 -12566310.346 10 0 59731 40500.00000 0 14169717.966 18815023.522 -9759964.550 10 0 59731 41400.00000 0 14767792.578 19662325.223 -6763740.529 10 0 59731 42300.00000 0 15229201.942 20141924.300 -3636041.239 10 0 59731 43200.00000 0 15499844.878 20268422.904 -437721.856 10 0 59731 44100.00000 0 15531237.402 20068524.156 2769101.595 10 0 59731 45000.00000 0 15282734.353 19579719.122 5922259.755 10 0 59731 45900.00000 0 14723428.484 18848542.448 8960729.920 10 0 59731 46800.00000 0 13833648.492 17928472.392 11825805.564 10 0 59731 47700.00000 0 12605994.755 16877565.073 14462213.654 10 0 59731 48600.00000 0 11045871.038 15755922.830 16819159.728 10 0 59731 49500.00000 0 9171491.371 14623102.433 18851282.620 10 0 59731 50400.00000 0 7013362.804 13535570.444 20519502.707 10 0 59731 51300.00000 0 4613265.824 12544310.214 21791749.902 10 0 59731 52200.00000 0 2022774.212 11692678.175 22643559.835 10 0 59731 53100.00000 0 -698625.597 11014596.488 23058528.846 10 0 59731 54000.00000 0 -3485739.978 10533155.238 23028620.776 10 0 59731 54900.00000 0 -6270109.979 10259680.801 22554320.640 10 0 59731 55800.00000 0 -8982591.679 10193308.275 21644632.485 10 0 59731 56700.00000 0 -11555971.638 10321075.767 20316920.957 10 0 59731 57600.00000 0 -13927512.261 10618537.359 18596598.285 10 0 59731 58500.00000 0 -16041324.092 11050870.716 16516660.784 10 0 59731 59400.00000 0 -17850468.455 11574435.128 14117081.363 10 0 59731 60300.00000 0 -19318703.962 12138717.066 11444067.002 10 0 59731 61200.00000 0 -20421804.032 12688583.928 8549192.886 10 0 59731 62100.00000 0 -21148389.576 13166753.182 5488427.355 10 0 59731 63000.00000 0 -21500240.367 13516374.149 2321064.477 10 0 59731 63900.00000 0 -21492069.934 13683613.913 -891416.481 10 0 59731 64800.00000 0 -21150771.227 13620137.535 -4086543.324 10 0 59731 65700.00000 0 -20514162.699 13285376.006 -7202071.772 10 0 59731 66600.00000 0 -19629285.980 12648483.547 -10177210.282 10 0 59731 67500.00000 0 -18550326.002 11689898.191 -12953823.672 10 0 59731 68400.00000 0 -17336241.137 10402436.008 -15477590.182 10 0 59731 69300.00000 0 -16048204.054 8791869.084 -17699087.203 10 0 59731 70200.00000 0 -14746962.714 6876959.369 -19574782.182 10 0 59731 71100.00000 0 -13490234.771 4688944.021 -21067907.171 10 0 59731 72000.00000 0 -12330247.603 2270491.780 -22149197.889 10 0 59731 72900.00000 0 -11311529.907 -325827.108 -22797481.251 10 0 59731 73800.00000 0 -10469049.963 -3039493.691 -23000098.732 10 0 59731 74700.00000 0 -9826780.463 -5804333.548 -22753156.561 10 0 59731 75600.00000 0 -9396751.100 -8551053.556 -22061597.766 10 0 59731 76500.00000 0 -9178628.700 -11209914.774 -20939094.961 10 0 59731 77400.00000 0 -9159841.643 -13713428.190 -19407766.832 10 0 59731 78300.00000 0 -9316241.534 -15998959.526 -17497725.076 10 0 59731 79200.00000 0 -9613271.849 -18011133.474 -15246462.188 10 0 59731 80100.00000 0 -10007591.401 -19703936.713 -12698093.928 10 0 59731 81000.00000 0 -10449081.147 -21042432.520 -9902473.197 10 0 59731 81900.00000 0 -10883146.684 -22004016.798 -6914194.600 10 0 59731 82800.00000 0 -11253216.699 -22579165.249 -3791511.081 10 0 59731 83700.00000 0 -11503329.874 -22771643.423 -595185.437 10 0 59731 84600.00000 0 -11580699.795 -22598174.241 2612699.631 10 0 59731 85500.00000 0 -11438149.181 -22087580.451 5769948.817 10 0 59732 0.00000 0 -11036311.162 -21279441.414 8815454.853 10 0 59732 900.00000 0 -10345505.574 -20222322.873 11690371.157 10 0 59732 1800.00000 0 -9347213.432 -18971657.151 14339230.560 10 0 59732 2700.00000 0 -8035088.555 -17587362.241 16710995.497 10 0 59732 3600.00000 0 -6415465.960 -16131300.601 18760017.285 10 0 59732 4500.00000 0 -4507346.798 -14664682.689 20446889.949 10 0 59732 5400.00000 0 -2341861.028 -13245522.070 21739184.413 10 0 59732 6300.00000 0 38770.051 -11926245.974 22612051.388 10 0 59732 7200.00000 0 2582729.319 -10751558.408 23048683.506 10 0 59732 8100.00000 0 5230497.271 -9756642.247 23040629.509 10 0 59732 9000.00000 0 7917067.578 -8965772.963 22587955.541 10 0 59732 9900.00000 0 10574396.042 -8391400.131 21699250.689 10 0 59732 10800.00000 0 13133984.916 -8033734.136 20391476.192 10 0 59732 11700.00000 0 15529498.824 -7880855.303 18689659.939 10 0 59732 12600.00000 0 17699306.599 -7909341.812 16626440.200 10 0 59732 13500.00000 0 19588845.746 -8085391.661 14241464.974 10 0 59732 14400.00000 0 21152712.552 -8366393.713 11580655.822 10 0 59732 15300.00000 0 22356391.053 -8702884.100 8695347.668 10 0 59732 16200.00000 0 23177548.104 -9040807.738 5641318.706 10 0 59732 17100.00000 0 23606838.941 -9323991.246 2477727.022 10 0 59732 18000.00000 0 23648187.356 -9496723.766 -734026.869 10 0 59732 18900.00000 0 23318526.312 -9506336.499 -3931490.305 10 0 59732 19800.00000 0 22647007.488 -9305670.783 -7052378.509 10 0 59732 20700.00000 0 21673710.861 -8855328.211 -10035799.808 10 0 59732 21600.00000 0 20447907.147 -8125604.653 -12823460.903 10 0 59732 22500.00000 0 19025945.492 -7098022.945 -15360826.829 10 0 59732 23400.00000 0 17468855.496 -5766395.719 -17598210.746 10 0 59732 24300.00000 0 15839765.494 -4137369.864 -19491770.036 10 0 59732 25200.00000 0 14201247.353 -2230426.333 -21004387.026 10 0 59732 26100.00000 0 12612701.628 -77332.732 -22106415.069 10 0 59732 27000.00000 0 11127895.284 2278930.139 -22776273.802 10 0 59732 27900.00000 0 9792757.573 4785723.706 -23000880.747 10 0 59732 28800.00000 0 8643528.449 7382723.739 -22775910.099 10 0 59732 29700.00000 0 7705338.287 10004225.974 -22105873.498 10 0 59732 30600.00000 0 6991278.793 12581687.523 -21004021.537 10 0 59732 31500.00000 0 6502003.437 15046396.258 -19492068.708 10 0 59732 32400.00000 0 6225872.590 17332155.068 -17599748.426 10 0 59732 33300.00000 0 6139634.871 19377867.621 -15364208.303 10 0 59732 34200.00000 0 6209613.059 21129916.710 -12829259.367 10 0 59732 35100.00000 0 6393341.300 22544235.814 -10044495.817 10 0 59732 36000.00000 0 6641581.242 23587987.998 -7064304.480 10 0 59732 36900.00000 0 6900628.928 24240783.485 -3946785.268 10 0 59732 37800.00000 0 7114812.475 24495387.347 -752605.361 10 0 59732 38700.00000 0 7229073.194 24357890.582 2456189.232 10 0 59732 39600.00000 0 7191520.112 23847340.670 5617380.642 10 0 59732 40500.00000 0 6955849.886 22994850.330 8669780.879 10 0 59732 41400.00000 0 6483530.614 21842224.762 11554405.351 10 0 59732 42300.00000 0 5745658.767 20440167.200 14215596.217 10 0 59732 43200.00000 0 4724412.656 18846139.395 16602075.425 10 0 59732 44100.00000 0 3414043.023 17121966.982 18667909.075 10 0 59732 45000.00000 0 1821360.698 15331289.347 20373366.788 10 0 59732 45900.00000 0 -34298.215 13536958.987 21685662.076 10 0 59732 46800.00000 0 -2121627.974 11798496.616 22579561.926 10 0 59732 47700.00000 0 -4398407.134 10169705.425 23037856.006 10 0 59732 48600.00000 0 -6813008.476 8696540.953 23051678.247 10 0 59732 49500.00000 0 -9306304.619 7415322.530 22620675.700 10 0 59732 50400.00000 0 -11813893.081 6351358.531 21753021.726 10 0 59732 51300.00000 0 -14268551.881 5518041.088 20465272.840 10 0 59732 52200.00000 0 -16602827.194 4916447.255 18782070.712 10 0 59732 53100.00000 0 -18751648.704 4535463.449 16735693.168 10 0 59732 54000.00000 0 -20654866.568 4352428.894 14365460.455 10 0 59732 54900.00000 0 -22259606.178 4334272.688 11717005.489 10 0 59732 55800.00000 0 -23522343.280 4439098.804 8841419.479 10 0 59732 56700.00000 0 -24410612.586 4618154.333 5794286.878 10 0 59732 57600.00000 0 -24904277.194 4818099.875 2634626.180 10 0 59732 58500.00000 0 -24996303.586 4983487.450 -576244.382 10 0 59732 59400.00000 0 -24693007.179 5059341.602 -3775895.063 10 0 59732 60300.00000 0 -24013755.388 4993733.966 -6902003.768 10 0 59732 61200.00000 0 -22990138.076 4740240.799 -9893581.638 10 0 59732 62100.00000 0 -21664638.181 4260177.006 -12692179.924 10 0 59732 63000.00000 0 -20088857.006 3524508.949 -15243052.784 10 0 59732 63900.00000 0 -18321368.278 2515361.646 -17496251.093 10 0 59732 64800.00000 0 -16425291.529 1227052.941 -19407623.652 10 0 59732 65700.00000 0 -14465687.881 -333392.456 -20939704.032 10 0 59732 66600.00000 0 -12506889.390 -2146273.662 -22062463.658 10 0 59732 67500.00000 0 -10609876.116 -4179790.027 -22753914.768 10 0 59732 68400.00000 0 -8829813.058 -6391140.429 -23000550.285 10 0 59732 69300.00000 0 -7213852.160 -8728099.794 -22797611.236 10 0 59732 70200.00000 0 -5799292.812 -11131006.397 -22149176.326 10 0 59732 71100.00000 0 -4612178.506 -13535075.767 -21068072.207 10 0 59732 72000.00000 0 -3666388.172 -15872942.766 -19575606.990 10 0 59732 72900.00000 0 -2963259.004 -18077323.864 -17701133.397 10 0 59732 73800.00000 0 -2491754.405 -20083686.691 -15481451.612 10 0 59732 74700.00000 0 -2229167.126 -21832813.880 -12960065.327 10 0 59732 75600.00000 0 -2142324.582 -23273153.357 -10186307.438 10 0 59732 76500.00000 0 -2189241.975 -24362856.773 -7214354.454 10 0 59732 77400.00000 0 -2321150.030 -25071421.621 -4102150.812 10 0 59732 78300.00000 0 -2484808.648 -25380869.993 -910265.761 10 0 59732 79200.00000 0 -2625006.321 -25286416.927 2299293.570 10 0 59732 80100.00000 0 -2687138.091 -24796603.183 5464288.817 10 0 59732 81000.00000 0 -2619752.421 -23932889.891 8523452.972 10 0 59732 81900.00000 0 -2376959.600 -22728734.935 11417665.839 10 0 59732 82800.00000 0 -1920600.972 -21228192.212 14091080.386 10 0 59732 83700.00000 0 -1222089.065 -19484094.127 16492179.698 10 0 59732 84600.00000 0 -263842.864 -17555894.137 18574746.113 10 0 59732 85500.00000 0 959740.338 -15507259.326 20298726.100 10 0 59733 0.00000 0 2441815.832 -13403512.497 21630976.667 10 0 59733 900.00000 0 4163144.911 -11309027.215 22545882.044 10 0 59733 1800.00000 0 6092666.630 -9284684.494 23025829.250 10 0 59733 2700.00000 0 8188567.759 -7385490.172 23061537.577 10 0 59733 3600.00000 0 10399806.357 -5658451.815 22652234.878 10 0 59733 4500.00000 0 12668028.955 -4140799.642 21805678.429 10 0 59733 5400.00000 0 14929804.709 -2858623.441 20538019.425 10 0 59733 6300.00000 0 17119087.117 -1825980.827 18873512.493 10 0 59733 7200.00000 0 19169804.119 -1044513.483 16844073.961 10 0 59733 8100.00000 0 21018471.758 -503587.735 14488695.029 10 0 59733 9000.00000 0 22606724.633 -180954.620 11852718.411 10 0 59733 9900.00000 0 23883658.746 -43903.454 8986989.757 10 0 59733 10800.00000 0 24807889.045 -50862.284 5946897.646 10 0 59733 11700.00000 0 25349234.689 -153379.685 2791318.557 10 0 59733 12600.00000 0 25489959.525 -298405.811 -418514.224 10 0 59733 13500.00000 0 25225513.288 -430777.128 -3620196.720 10 0 59733 14400.00000 0 24564739.427 -495799.732 -6751372.447 10 0 59733 15300.00000 0 23529537.879 -441820.947 -9750958.274 10 0 59733 16200.00000 0 22153994.292 -222678.427 -12560352.787 10 0 59733 17100.00000 0 20483010.212 200079.628 -15124601.861 10 0 59733 18000.00000 0 18570490.514 855300.317 -17393496.425 10 0 59733 18900.00000 0 16477163.857 1760741.593 -19322578.778 10 0 59733 19800.00000 0 14268128.092 2922063.735 -20874035.551 10 0 59733 20700.00000 0 12010224.917 4332342.403 -22017457.772 10 0 59733 21600.00000 0 9769355.554 5972126.383 -22730451.553 10 0 59733 22500.00000 0 7607851.913 7810039.356 -22999086.202 10 0 59733 23400.00000 0 5582015.266 9803901.269 -22818170.241 10 0 59733 24300.00000 0 3739927.017 11902322.249 -22191349.749 10 0 59733 25200.00000 0 2119624.026 14046701.478 -21131027.367 10 0 59733 26100.00000 0 747715.036 16173545.846 -19658104.342 10 0 59733 27000.00000 0 -361504.815 18217009.520 -17801551.810 10 0 59733 27900.00000 0 -1206406.085 20111546.306 -15597821.207 10 0 59733 28800.00000 0 -1797831.613 21794562.006 -13090107.148 10 0 59733 29700.00000 0 -2158369.042 23208954.526 -10327479.099 10 0 59733 30600.00000 0 -2321123.629 24305434.763 -7363900.759 10 0 59733 31500.00000 0 -2328046.746 25044531.183 -4257158.284 10 0 59733 32400.00000 0 -2227894.143 25398195.091 -1067719.935 10 0 59733 33300.00000 0 -2073903.118 25350941.048 2142449.271 10 0 59733 34200.00000 0 -1921288.943 24900476.925 5311093.800 10 0 59733 35100.00000 0 -1824667.602 24057799.853 8376870.946 10 0 59733 36000.00000 0 -1835514.106 22846756.775 11280528.160 10 0 59733 36900.00000 0 -1999763.116 21303090.445 13966032.312 10 0 59733 37800.00000 0 -2355651.856 19473012.719 16381630.512 10 0 59733 38700.00000 0 -2931894.502 17411365.858 18480823.972 10 0 59733 39600.00000 0 -3746262.920 15179448.804 20223238.353 10 0 59733 40500.00000 0 -4804631.701 12842598.280 21575376.389 10 0 59733 41400.00000 0 -6100526.294 10467623.650 22511240.739 10 0 59733 42300.00000 0 -7615192.627 8120199.860 23012817.313 10 0 59733 43200.00000 0 -9318185.669 5862323.761 23070411.564 10 0 59733 44100.00000 0 -11168453.725 3749936.290 22682832.446 10 0 59733 45000.00000 0 -13115875.334 1830806.264 21857420.901 10 0 59733 45900.00000 0 -15103187.613 142760.992 20609921.966 10 0 59733 46800.00000 0 -17068229.021 -1287664.700 18964201.791 10 0 59733 47700.00000 0 -18946406.374 -2446105.925 16951813.190 10 0 59733 48600.00000 0 -20673286.393 -3330735.376 14611415.758 10 0 59733 49500.00000 0 -22187206.222 -3952105.268 11988058.991 10 0 59733 50400.00000 0 -23431795.433 -4332468.902 9132339.592 10 0 59733 51300.00000 0 -24358304.712 -4504608.675 6099446.624 10 0 59733 52200.00000 0 -24927643.257 -4510217.997 2948110.765 10 0 59733 53100.00000 0 -25112037.858 -4397903.603 -260523.475 10 0 59733 54000.00000 0 -24896241.731 -4220891.453 -3464081.652 10 0 59733 54900.00000 0 -24278239.280 -4034532.697 -6600176.542 10 0 59733 55800.00000 0 -23269413.968 -3893715.641 -9607634.185 10 0 59733 56700.00000 0 -21894169.103 -3850294.583 -12427703.714 10 0 59733 57600.00000 0 -20189014.747 -3950646.586 -15005225.601 10 0 59733 58500.00000 0 -18201157.128 -4233462.390 -17289733.318 10 0 59733 59400.00000 0 -15986648.667 -4727868.203 -19236464.659 10 0 59733 60300.00000 0 -13608175.941 -5451961.149 -20807260.738 10 0 59733 61200.00000 0 -11132579.045 -6411823.370 -21971332.989 10 0 59733 62100.00000 0 -8628207.514 -7601059.097 -22705881.525 10 0 59733 63000.00000 0 -6162225.176 -9000876.254 -22996551.512 10 0 59733 63900.00000 0 -3797978.642 -10580710.309 -22837717.829 10 0 59733 64800.00000 0 -1592541.047 -12299364.525 -22232592.258 10 0 59733 65700.00000 0 405465.059 -14106618.174 -21193151.326 10 0 59733 66600.00000 0 2157674.113 -15945234.006 -19739886.964 10 0 59733 67500.00000 0 3637338.126 -17753279.017 -17901386.017 10 0 59733 68400.00000 0 4830185.859 -19466659.240 -15713748.309 10 0 59733 69300.00000 0 5734746.828 -21021760.247 -13219856.422 10 0 59733 70200.00000 0 6362129.613 -22358080.983 -10468513.407 10 0 59733 71100.00000 0 6735267.440 -23420749.319 -7513467.207 10 0 59733 72000.00000 0 6887666.567 -24162813.289 -4412342.830 10 0 59733 72900.00000 0 6861714.078 -24547212.217 -1225504.798 10 0 59733 73800.00000 0 6706619.868 -24548346.117 1985126.574 10 0 59733 74700.00000 0 6476082.425 -24153179.260 5157280.988 10 0 59733 75600.00000 0 6225778.932 -23361833.870 8229542.249 10 0 59733 76500.00000 0 6010786.590 -22187651.505 11142527.439 10 0 59733 77400.00000 0 5883043.995 -20656721.910 13840019.073 10 0 59733 78300.00000 0 5888958.753 -18806901.051 16270029.773 10 0 59733 79200.00000 0 6067260.604 -16686360.683 18385780.835 10 0 59733 80100.00000 0 6447188.458 -14351730.483 20146578.033 10 0 59733 81000.00000 0 7047085.542 -11865909.736 21518570.322 10 0 59733 81900.00000 0 7873459.911 -9295638.157 22475379.326 10 0 59733 82800.00000 0 8920548.506 -6708924.687 22998589.700 10 0 59733 83700.00000 0 10170402.648 -4172438.082 23078092.771 10 0 59733 84600.00000 0 11593491.993 -1748964.353 22712278.064 10 0 59733 85500.00000 0 13149803.135 504966.692 21908069.434 99